User: anonymous   Login
Location: Caltech
(34.1382°N, 118.1253°W)
Time: 10:19:10
(UTC-07:00)
Language:

OAO 2 Rocket - Orbit

View from above orbital plane
View from above orbital plane
View from above satellite
View from above satellite

Ground track
Ground track

The orbit data is extracted from the following two-line orbital elements,

1 03598U 68110B   15184.12498797  .00000110  00000-0  29875-4 0  9994
2 03598 034.9944 054.4280 0049765 189.2536 170.7242 14.54068342462325
Epoch (UTC): 03 July 2015 02:59:58
Eccentricity: 0.0049765
inclination: 34.9944°
perigee height: 677 km
apogee height: 747 km
right ascension of ascending node: 54.4280°
argument of perigee: 189.2536°
revolutions per day: 14.54068342
mean anomaly at epoch: 170.7242°
orbit number at epoch: 46232

The dashed part of the orbit path shows where the satellite is in the earth's shadow,  

DLR